Location: Blue Mountain Vista Observatory
(40.6992°N, 75.9422°W)
Time: 11:47:30
(UTC-05:00)

Amateur Radio Satellites - All Passes

Search period start: 23 November 2017 11:17
Search period end: 24 November 2017 11:17
Location: Blue Mountain Vista Observatory, 40.6992°N, 75.9422°W

Satellite Date Start Highest point End Downlink Frequencies (MHz)
Time Altitude Azimuth
AIST 2D 23 Nov 11:17:32 11:20:15 21° 265° (W) 11:22:59 435.315
POLYITAN 1 23 Nov 11:24:06 11:28:20 71° 258° (WSW) 11:32:33 437.675
FALCONSAT 3 23 Nov 11:39:44 11:43:03 32° 188° (S) 11:46:23 435.103
BUGSAT 1 23 Nov 11:41:11 11:44:54 32° 70° (ENE) 11:48:37 437.445
LO-87 23 Nov 11:44:23 11:47:46 45° 286° (WNW) 11:51:08 145.935 - 145.965
O/OREOS (USA 219) 23 Nov 11:47:21 11:50:09 16° 99° (E) 11:52:56 437.305
ESTCUBE 1 23 Nov 11:47:46 11:52:19 78° 284° (WNW) 11:56:51 437.505/2401.250
QB50P2 23 Nov 11:48:07 11:51:58 33° 263° (W) 11:55:49 145.880/145.840
VELOX 1 23 Nov 11:58:18 12:01:36 20° 94° (E) 12:04:52 145.980
Oscar 19 23 Nov 12:03:46 12:08:21 34° 68° (ENE) 12:12:57 437.125/150
BEESAT 2 23 Nov 12:07:20 12:11:18 59° 241° (WSW) 12:15:12 435.950
DUCHIFAT 1 23 Nov 12:35:19 12:37:47 15° 268° (W) 12:40:17 145.980
SPROUT 23 Nov 12:35:56 12:40:12 87° 103° (ESE) 12:44:26 437.525
DX 1 23 Nov 12:37:41 12:38:57 11° 90° (E) 12:40:12 434.975-435.025
M-CUBED/EXP-1 PRIME 23 Nov 12:37:59 12:39:48 13° 57° (ENE) 12:41:42 437.505
AO-91 23 Nov 12:39:54 12:45:14 72° 75° (ENE) 12:50:36 145.960
AO-85 23 Nov 12:46:47 12:51:30 67° 240° (WSW) 12:56:32 145.980
Gurwin Techsat 1B 23 Nov 12:47:55 12:53:10 65° 73° (ENE) 12:58:27 435.225
50 SAT 23 Nov 12:49:56 12:51:31 13° 93° (E) 12:53:05 437.505
AO-7 23 Nov 13:07:43 13:14:24 28° 56° (NE) 13:21:06 .
UKube-1 23 Nov 13:13:02 13:15:55 17° 93° (E) 13:18:47 .
BUGSAT 1 23 Nov 13:17:08 13:20:17 20° 266° (W) 13:23:25 437.445
FALCONSAT 3 23 Nov 13:19:23 13:21:36 15° 203° (SSW) 13:23:49 435.103
O/OREOS (USA 219) 23 Nov 13:24:39 13:29:06 49° 296° (WNW) 13:33:35 437.305
VELOX 1 23 Nov 13:34:02 13:38:08 37° 290° (WNW) 13:42:12 145.980
Oscar 19 23 Nov 13:43:20 13:47:40 28° 264° (W) 13:52:02 437.125/150
NO-84 23 Nov 14:01:20 14:04:48 55° 133° (SE) 14:08:35 435.350 FM
ITAMSAT 1 23 Nov 14:01:56 14:06:18 28° 66° (ENE) 14:10:40 435.822/435.867
M-CUBED/EXP-1 PRIME 23 Nov 14:10:15 14:13:43 47° 256° (WSW) 14:17:28 437.505
DX 1 23 Nov 14:11:11 14:15:32 64° 286° (WNW) 14:19:51 434.975-435.025
AO-91 23 Nov 14:19:07 14:22:06 15° 271° (W) 14:25:06 145.960
50 SAT 23 Nov 14:20:51 14:23:39 27° 289° (WNW) 14:26:24 437.505
Gurwin Techsat 1B 23 Nov 14:30:27 14:33:33 16° 269° (W) 14:36:40 435.225
UKube-1 23 Nov 14:48:02 14:52:05 40° 289° (WNW) 14:56:07 .
YUBILEINY 23 Nov 14:53:55 15:00:32 23° 65° (ENE) 15:07:05 435.215
AO-7 23 Nov 14:58:15 15:06:29 69° 255° (WSW) 15:14:48 .
MOZHAYETS 4 23 Nov 15:04:37 15:09:06 54° 100° (E) 15:13:34
BEESAT 23 Nov 15:05:14 15:09:42 39° 98° (E) 15:14:08 436.000
DOVE 4 23 Nov 15:15:41 15:19:40 23° 65° (ENE) 15:23:46 437.250
ITUPSAT 1 23 Nov 15:16:36 15:21:14 50° 100° (E) 15:25:50 437.325
CUBESAT XI-V 23 Nov 15:23:45 15:27:12 20° 93° (E) 15:30:40 437.345
NO-84 23 Nov 15:39:18 15:42:24 24° 333° (NNW) 15:45:41 435.350 FM
ITAMSAT 1 23 Nov 15:40:46 15:45:35 37° 262° (W) 15:50:25 435.822/435.867
CUTE-I 23 Nov 15:55:26 15:57:19 12° 58° (ENE) 15:59:11 437.470
HO-68 23 Nov 16:12:59 16:15:55 13° 50° (NE) 16:18:50 435.675
XW-2D 23 Nov 16:23:35 16:26:00 17° 67° (ENE) 16:28:25 145.860 - 145.880
XW-2B 23 Nov 16:37:52 16:40:50 23° 69° (ENE) 16:43:50 145.730 - 145.750
KKS-1 23 Nov 16:37:57 16:41:38 25° 96° (E) 16:45:18 437.445
NUDT-PHONESAT 23 Nov 16:41:37 16:44:04 17° 68° (ENE) 16:46:33 437.300
MOZHAYETS 4 23 Nov 16:43:07 16:45:48 16° 296° (WNW) 16:48:30
BEESAT 23 Nov 16:43:35 16:47:12 22° 295° (WNW) 16:50:49 436.000
RS-15 23 Nov 16:47:42 16:57:43 31° 103° (ESE) 17:07:42 29.354- 29.394
YUBILEINY 23 Nov 16:49:28 16:58:20 79° 265° (W) 17:07:07 435.215
DOVE 4 23 Nov 16:52:10 16:56:59 44° 263° (W) 17:02:02 437.250
STARS 23 Nov 16:55:26 16:57:58 15° 92° (E) 17:00:27 437.465
ITUPSAT 1 23 Nov 16:55:30 16:58:38 18° 297° (WNW) 17:01:47 437.325
AO-7 23 Nov 16:58:09 17:00:38 11° 273° (W) 17:03:08 .
CUBESAT XI-V 23 Nov 17:00:19 17:04:43 40° 289° (WNW) 17:09:06 437.345
XW-2C 23 Nov 17:02:55 17:06:30 48° 74° (ENE) 17:10:07 145.795 - 145.815
LilacSat-2 23 Nov 17:08:11 17:11:53 62° 75° (ENE) 17:15:37 437.200
XW-2F 23 Nov 17:11:00 17:14:38 56° 74° (ENE) 17:18:18 145.980 - 146.000
NO-84 23 Nov 17:19:41 17:21:00 11° 354° (N) 17:22:20 435.350 FM
CUTE-I 23 Nov 17:31:08 17:36:30 85° 75° (ENE) 17:41:54 437.470
KAITUO 1B 23 Nov 17:34:06 17:37:46 87° 74° (ENE) 17:41:29 145.475/437.950
CUBEBUG 2 23 Nov 17:55:02 17:58:55 28° 70° (ENE) 18:02:43 437.445
HO-68 23 Nov 17:55:11 18:02:17 65° 70° (ENE) 18:09:24 435.675
XW-2D 23 Nov 17:56:33 17:59:54 32° 263° (W) 18:03:17 145.860 - 145.880
CUTE 1.7 + AOD 2 23 Nov 18:06:10 18:10:18 61° 75° (ENE) 18:14:28 437.475
XW-2B 23 Nov 18:11:58 18:14:55 22° 265° (W) 18:17:53 145.730 - 145.750
KKS-1 23 Nov 18:14:17 18:18:09 30° 292° (WNW) 18:22:00 437.445
NUDT-PHONESAT 23 Nov 18:14:31 18:17:42 28° 264° (W) 18:20:54 437.300
AAUSAT CUBESAT 2 23 Nov 18:30:09 18:33:43 29° 70° (ENE) 18:37:18 437.432
STARS 23 Nov 18:30:19 18:34:33 48° 288° (WNW) 18:38:44 437.465
ZACube-1 23 Nov 18:30:56 18:34:03 20° 67° (ENE) 18:37:08 437.345
SEEDS 23 Nov 18:31:12 18:35:21 71° 76° (ENE) 18:39:32 437.485
XW-2C 23 Nov 18:40:07 18:40:57 11° 270° (W) 18:41:46 145.795 - 145.815
nSIGHT-1 23 Nov 18:42:18 18:44:23 16° 131° (SE) 18:46:29 .
UWE-3 23 Nov 18:45:32 18:49:52 55° 74° (ENE) 18:54:05 435.000/436.395/437.385
YUBILEINY 23 Nov 18:49:20 18:53:33 14° 285° (WNW) 18:57:47 435.215
XW-2A 23 Nov 18:53:11 18:56:27 59° 76° (ENE) 18:59:44 145.665 - 145.685
RS-15 23 Nov 18:56:43 19:09:04 78° 304° (NW) 19:21:23 29.354- 29.394
NO-84 23 Nov 18:57:38 18:59:52 14° 15° (NNE) 19:02:07 435.350 FM
STRAND 1 23 Nov 19:00:43 19:05:25 35° 97° (E) 19:10:03 437.568
CUTE-I 23 Nov 19:15:26 19:17:11 11° 271° (W) 19:18:55 437.470
AO-73 23 Nov 19:18:56 19:23:08 59° 74° (ENE) 19:27:17 145.935
CUBEBUG 2 23 Nov 19:31:36 19:35:28 26° 265° (W) 19:39:14 437.445
Oscar 11 23 Nov 19:32:07 19:36:18 55° 74° (ENE) 19:40:31 .
ISS 23 Nov 19:34:09 19:37:17 44° 138° (SE) 19:40:25 437.550
HO-68 23 Nov 19:44:59 19:50:28 23° 267° (W) 19:56:01 435.675
CUTE 1.7 + AOD 2 23 Nov 19:45:34 19:46:31 11° 271° (W) 19:47:28 437.475
SO-50 23 Nov 20:05:44 20:09:01 20° 111° (ESE) 20:12:19 436.795
AAUSAT CUBESAT 2 23 Nov 20:05:55 20:09:08 22° 266° (W) 20:12:24 437.432
ZACube-1 23 Nov 20:06:09 20:10:06 35° 263° (W) 20:14:00 437.345
DELFI C3 23 Nov 20:09:34 20:12:56 27° 70° (ENE) 20:16:20 145.870
nSIGHT-1 23 Nov 20:17:10 20:20:20 53° 327° (NNW) 20:23:30 .
FO-29 23 Nov 20:21:51 20:29:35 58° 99° (E) 20:36:42 435.910
UWE-3 23 Nov 20:24:35 20:26:35 13° 269° (W) 20:28:35 435.000/436.395/437.385
EO-88 23 Nov 20:31:43 20:34:33 22° 69° (ENE) 20:37:24 145.990 - 145.960
NO-84 23 Nov 20:34:09 20:38:09 39° 35° (NE) 20:42:11 435.350 FM
Max Valier Satellite 23 Nov 20:39:26 20:42:51 39° 73° (ENE) 20:46:17 145.860
STRAND 1 23 Nov 20:40:09 20:44:25 27° 294° (WNW) 20:48:40 437.568
AO-73 23 Nov 20:58:20 20:59:42 11° 270° (W) 21:01:03 145.935
Oscar 11 23 Nov 21:10:55 21:12:46 12° 270° (W) 21:14:37 .
ISS 23 Nov 21:11:02 21:13:52 26° 335° (NNW) 21:16:42 437.550
RS-15 23 Nov 21:13:31 21:23:55 30° 332° (NNW) 21:34:11 29.354- 29.394
DELFI C3 23 Nov 21:44:34 21:47:39 21° 266° (W) 21:50:45 145.870
SO-50 23 Nov 21:44:54 21:49:10 43° 308° (NW) 21:53:28 436.795
nSIGHT-1 23 Nov 21:55:09 21:57:07 15° 346° (NNW) 21:59:05 .
O/OREOS (USA 219) 23 Nov 21:55:58 21:59:58 29° 60° (ENE) 22:03:56 437.305
EO-88 23 Nov 22:05:15 22:08:06 22° 265° (W) 22:10:57 145.990 - 145.960
UNISAT 6 23 Nov 22:05:47 22:10:03 78° 284° (WNW) 22:14:18 437.425
FO-29 23 Nov 22:07:27 22:14:04 31° 298° (WNW) 22:20:20 435.910
TIGRISAT 23 Nov 22:09:18 22:13:34 78° 283° (WNW) 22:17:48 435.000
PRISM 23 Nov 22:11:19 22:15:12 37° 98° (E) 22:19:03 437.425
NO-84 23 Nov 22:11:39 22:15:28 32° 231° (SW) 22:19:13 435.350 FM
Max Valier Satellite 23 Nov 22:15:21 22:16:51 12° 268° (W) 22:18:21 145.860
LO-87 23 Nov 22:19:13 22:22:46 60° 76° (ENE) 22:26:20 145.935 - 145.965
AIST 2D 23 Nov 22:41:53 22:44:51 25° 96° (E) 22:47:49 435.315
PCSat 23 Nov 22:42:07 22:46:34 27° 108° (ESE) 22:51:03 145.827
ESTCUBE 1 23 Nov 22:46:32 22:51:00 90° 321° (NW) 22:55:32 437.505/2401.250
ISS 23 Nov 22:49:40 22:51:12 13° 355° (N) 22:52:43 437.550
EO-79 23 Nov 22:54:52 22:56:31 12° 91° (E) 22:58:11 145.935-145.965
VELOX 1 23 Nov 22:55:29 22:58:30 18° 65° (ENE) 23:01:32 145.980
NANOSAT C BR1 23 Nov 22:56:38 22:57:42 11° 90° (E) 22:58:45 145.865
POLYITAN 1 23 Nov 23:09:56 23:12:52 18° 93° (E) 23:15:46 437.675
SPROUT 23 Nov 23:28:20 23:32:32 61° 75° (ENE) 23:36:47 437.525
QB50P2 23 Nov 23:32:44 23:36:39 37° 98° (E) 23:40:32 145.880/145.840
nSIGHT-1 23 Nov 23:32:54 23:34:23 12° 7° (N) 23:35:52 .
RS-15 23 Nov 23:33:10 23:42:00 22° 7° (N) 23:50:34 29.354- 29.394
DX 1 23 Nov 23:33:50 23:34:41 10° 61° (ENE) 23:35:32 434.975-435.025
O/OREOS (USA 219) 23 Nov 23:35:29 23:39:16 26° 257° (WSW) 23:42:59 437.305
PRISM 23 Nov 23:47:19 23:50:11 18° 294° (WNW) 23:53:01 437.425
UKube-1 24 Nov 00:07:39 00:10:09 15° 64° (ENE) 00:12:40 .
AIST 2D 24 Nov 00:15:20 00:17:51 18° 291° (WNW) 00:20:21 435.315
DUCHIFAT 1 24 Nov 00:17:13 00:21:24 84° 102° (ESE) 00:25:34 145.980
Oscar 19 24 Nov 00:17:30 00:19:19 12° 89° (E) 00:21:08 437.125/150
PCSat 24 Nov 00:24:35 00:29:43 43° 305° (NW) 00:34:54 145.827
ISS 24 Nov 00:26:30 00:28:42 17° 16° (NNE) 00:30:54 437.550
EO-79 24 Nov 00:28:30 00:32:36 54° 286° (WNW) 00:36:40 145.935-145.965
NANOSAT C BR1 24 Nov 00:29:38 00:33:46 59° 285° (WNW) 00:37:51 145.865
VELOX 1 24 Nov 00:30:22 00:34:35 43° 261° (W) 00:38:51 145.980
AO-91 24 Nov 00:33:07 00:35:11 13° 88° (E) 00:37:08 145.960
BEESAT 3 24 Nov 00:41:10 00:42:44 12° 108° (ESE) 00:44:17 437.485
POLYITAN 1 24 Nov 00:44:54 00:48:44 35° 289° (WNW) 00:52:33 437.675
50 SAT 24 Nov 00:46:32 00:49:44 70° 76° (ENE) 00:52:58 437.505
BUGSAT 1 24 Nov 00:57:46 01:01:44 55° 100° (E) 01:05:39 437.445
Gurwin Techsat 1B 24 Nov 01:04:57 01:09:22 26° 95° (E) 01:13:43 435.225
DX 1 24 Nov 01:05:50 01:10:12 79° 257° (WSW) 01:14:36 434.975-435.025
SPROUT 24 Nov 01:07:29 01:08:48 11° 270° (W) 01:10:06 437.525
nSIGHT-1 24 Nov 01:08:33 01:11:24 29° 26° (NNE) 01:14:15 .
QB50P2 24 Nov 01:09:14 01:12:09 18° 294° (WNW) 01:15:03 145.880/145.840
UKube-1 24 Nov 01:41:33 01:45:44 50° 260° (W) 01:49:58 .
RS-15 24 Nov 01:47:45 01:58:58 43° 40° (NE) 02:09:35 29.354- 29.394
M-CUBED/EXP-1 PRIME 24 Nov 01:49:44 01:51:43 13° 95° (E) 01:53:42 437.505
Oscar 19 24 Nov 01:54:01 01:59:12 79° 285° (WNW) 02:04:22 437.125/150
BEESAT 2 24 Nov 01:58:12 02:01:26 24° 113° (ESE) 02:04:42 435.950
ISS 24 Nov 02:02:25 02:05:40 66° 35° (NE) 02:08:55 437.550
MOZHAYETS 4 24 Nov 02:05:54 02:10:18 49° 73° (ENE) 02:14:42
AO-91 24 Nov 02:07:46 02:12:05 49° 288° (WNW) 02:15:57 145.960
BEESAT 24 Nov 02:11:04 02:15:35 45° 71° (ENE) 02:20:08 436.000
BEESAT 3 24 Nov 02:15:49 02:19:45 58° 304° (NW) 02:23:43 437.485
ITUPSAT 1 24 Nov 02:22:44 02:27:25 58° 73° (ENE) 02:32:07 437.325
CUBESAT XI-V 24 Nov 02:27:01 02:30:18 20° 65° (ENE) 02:33:35 437.345
BUGSAT 1 24 Nov 02:35:01 02:36:36 12° 297° (WNW) 02:38:10 437.445
Gurwin Techsat 1B 24 Nov 02:44:27 02:49:23 40° 291° (WNW) 02:54:18 435.225
nSIGHT-1 24 Nov 02:44:42 02:47:39 35° 223° (SW) 02:50:36 .
AO-7 24 Nov 03:00:16 03:08:05 42° 100° (E) 03:15:50 .
AO-85 24 Nov 03:01:30 03:05:06 39° 116° (ESE) 03:08:51 145.980
M-CUBED/EXP-1 PRIME 24 Nov 03:21:52 03:26:26 70° 290° (WNW) 03:31:03 437.505
BEESAT 2 24 Nov 03:35:24 03:39:00 31° 310° (NW) 03:42:39 435.950
KKS-1 24 Nov 03:35:42 03:39:16 24° 67° (ENE) 03:42:49 437.445
Oscar 19 24 Nov 03:36:52 03:37:38 10° 303° (WNW) 03:38:24 437.125/150
ISS 24 Nov 03:40:06 03:41:46 13° 230° (SW) 03:43:24 437.550
MOZHAYETS 4 24 Nov 03:44:59 03:47:42 16° 268° (W) 03:50:27
BEESAT 24 Nov 03:50:12 03:53:33 19° 267° (W) 03:56:54 436.000
STARS 24 Nov 03:52:08 03:54:29 14° 63° (ENE) 03:56:50 437.465
ITAMSAT 1 24 Nov 03:53:19 03:58:33 79° 103° (ESE) 04:03:44 435.822/435.867
YUBILEINY 24 Nov 03:55:32 04:02:12 25° 81° (E) 04:08:53 435.215
RS-15 24 Nov 04:00:32 04:12:06 66° 246° (WSW) 04:23:04 29.354- 29.394
ITUPSAT 1 24 Nov 04:02:57 04:05:35 15° 268° (W) 04:08:14 437.325
CUBESAT XI-V 24 Nov 04:02:59 04:07:20 42° 262° (W) 04:11:44 437.345
SO-50 24 Nov 04:36:13 04:39:46 21° 44° (NE) 04:43:21 436.795
AO-85 24 Nov 04:42:44 04:45:40 20° 315° (NW) 04:48:42 145.980
DOVE 4 24 Nov 04:51:19 04:56:22 56° 99° (E) 05:01:07 437.250
AO-7 24 Nov 04:53:02 05:00:49 46° 298° (WNW) 05:08:37 .
KKS-1 24 Nov 05:11:36 05:15:38 33° 263° (W) 05:19:41 437.445
STARS 24 Nov 05:25:58 05:30:19 57° 259° (W) 05:34:42 437.465
HO-68 24 Nov 05:27:43 05:28:56 10° 86° (E) 05:30:09 435.675
XW-2D 24 Nov 05:29:01 05:32:09 24° 95° (E) 05:35:18 145.860 - 145.880
ITAMSAT 1 24 Nov 05:34:45 05:37:19 14° 301° (WNW) 05:39:51 435.822/435.867
XW-2B 24 Nov 05:43:40 05:47:11 34° 98° (E) 05:50:42 145.730 - 145.750
NUDT-PHONESAT 24 Nov 05:44:27 05:47:30 24° 95° (E) 05:50:33 437.300
CUTE-I 24 Nov 05:48:47 05:53:39 34° 97° (E) 05:58:28 437.470
YUBILEINY 24 Nov 05:49:26 05:58:09 68° 281° (W) 06:06:58 435.215
CUTE 1.7 + AOD 2 24 Nov 05:53:34 05:54:44 11° 90° (E) 05:55:54 437.475
XW-2C 24 Nov 06:09:16 06:13:05 77° 101° (ESE) 06:16:54 145.795 - 145.815
LilacSat-2 24 Nov 06:15:25 06:19:17 81° 285° (WNW) 06:23:08 437.200
SO-50 24 Nov 06:15:59 06:20:31 53° 242° (WSW) 06:25:06 436.795
STRAND 1 24 Nov 06:16:04 06:21:01 50° 71° (ENE) 06:25:59 437.568
XW-2F 24 Nov 06:16:49 06:20:38 89° 104° (ESE) 06:24:27 145.980 - 146.000
SEEDS 24 Nov 06:16:59 06:18:45 12° 90° (E) 06:20:31 437.485
RS-15 24 Nov 06:17:57 06:21:53 12° 267° (W) 06:25:46 29.354- 29.394
DOVE 4 24 Nov 06:30:08 06:33:30 18° 297° (WNW) 06:36:45 437.250
FO-29 24 Nov 06:33:46 06:39:20 27° 60° (ENE) 06:45:20 435.910
UWE-3 24 Nov 06:38:17 06:38:42 10° 90° (E) 06:39:06 435.000/436.395/437.385
KAITUO 1B 24 Nov 06:38:57 06:42:41 61° 284° (WNW) 06:46:25 145.475/437.950
AO-7 24 Nov 06:51:08 06:51:27 10° 319° (NW) 06:51:46 .
XW-2D 24 Nov 07:03:12 07:06:12 22° 291° (WNW) 07:09:13 145.860 - 145.880
AO-73 24 Nov 07:09:26 07:10:22 11° 90° (E) 07:11:17 145.935
HO-68 24 Nov 07:10:38 07:17:50 71° 104° (ESE) 07:24:58 435.675
NUDT-PHONESAT 24 Nov 07:18:21 07:21:13 21° 291° (WNW) 07:24:06 437.300
XW-2B 24 Nov 07:18:40 07:21:04 16° 293° (WNW) 07:23:28 145.730 - 145.750
CUBEBUG 2 24 Nov 07:21:44 07:25:52 64° 101° (E) 07:29:57 437.445
Oscar 11 24 Nov 07:22:26 07:23:03 10° 89° (E) 07:23:41 .
CUTE 1.7 + AOD 2 24 Nov 07:26:42 07:30:56 62° 285° (WNW) 07:35:10 437.475
CUTE-I 24 Nov 07:28:57 07:33:34 31° 293° (WNW) 07:38:11 437.470
PCSat 24 Nov 07:29:41 07:33:59 23° 47° (NE) 07:38:16 145.827
AAUSAT CUBESAT 2 24 Nov 07:46:54 07:51:02 56° 100° (E) 07:55:08 437.432
XW-2A 24 Nov 07:47:09 07:50:31 66° 101° (ESE) 07:53:53 145.665 - 145.685
FALCONSAT 3 24 Nov 07:49:30 07:51:48 16° 157° (SSE) 07:54:06 435.103
SEEDS 24 Nov 07:50:35 07:54:44 55° 286° (WNW) 07:58:53 437.485
YUBILEINY 24 Nov 07:52:57 07:56:50 13° 303° (WNW) 08:00:44 435.215
ZACube-1 24 Nov 07:54:03 07:58:01 41° 99° (E) 08:01:59 437.345
STRAND 1 24 Nov 07:56:48 08:00:27 19° 267° (W) 08:04:07 437.568
UWE-3 24 Nov 08:11:26 08:15:32 61° 285° (WNW) 08:19:38 435.000/436.395/437.385
FO-29 24 Nov 08:17:01 08:23:40 64° 260° (W) 08:31:09 435.910
AO-73 24 Nov 08:42:51 08:46:56 60° 286° (WNW) 08:51:04 145.935
Oscar 11 24 Nov 08:55:18 08:59:37 67° 285° (WNW) 09:03:55 .
HO-68 24 Nov 08:59:29 09:04:53 24° 302° (WNW) 09:10:16 435.675
PRISM 24 Nov 09:00:13 09:03:39 26° 68° (ENE) 09:07:06 437.425
CUBEBUG 2 24 Nov 09:00:46 09:01:55 11° 297° (WNW) 09:03:05 437.445
UNISAT 6 24 Nov 09:03:36 09:08:10 86° 72° (ENE) 09:12:37 437.425
TIGRISAT 24 Nov 09:06:59 09:11:31 85° 79° (E) 09:16:00 435.000
PCSat 24 Nov 09:12:26 09:17:45 57° 246° (WSW) 09:23:01 145.827
DELFI C3 24 Nov 09:20:27 09:24:18 45° 99° (E) 09:28:06 145.870
AAUSAT CUBESAT 2 24 Nov 09:24:04 09:25:59 13° 296° (WNW) 09:27:53 437.432
FALCONSAT 3 24 Nov 09:27:01 09:30:21 32° 172° (S) 09:33:41 435.103
ZACube-1 24 Nov 09:31:21 09:33:57 16° 294° (WNW) 09:36:35 437.345
EO-88 24 Nov 09:33:12 09:36:25 29° 97° (E) 09:39:37 145.990 - 145.960
Max Valier Satellite 24 Nov 09:42:42 09:46:20 58° 100° (E) 09:49:58 145.860
POLYITAN 1 24 Nov 10:02:52 10:05:09 14° 64° (ENE) 10:07:26 437.675
BEESAT 2 24 Nov 10:15:57 10:18:31 16° 44° (NE) 10:21:04 435.950
QB50P2 24 Nov 10:24:58 10:28:33 27° 69° (ENE) 10:32:08 145.880/145.840
BEESAT 3 24 Nov 10:32:32 10:36:29 69° 57° (ENE) 10:40:20 437.485
PRISM 24 Nov 10:35:24 10:38:49 25° 264° (W) 10:42:16 437.425
ESTCUBE 1 24 Nov 10:39:59 10:43:17 19° 93° (E) 10:46:33 437.505/2401.250
AIST 2D 24 Nov 10:47:52 10:51:14 52° 260° (W) 10:54:39 435.315
DELFI C3 24 Nov 10:56:30 10:58:38 14° 295° (WNW) 11:00:45 145.870
FALCONSAT 3 24 Nov 11:05:43 11:09:04 33° 188° (S) 11:12:24 435.103
EO-88 24 Nov 11:07:21 11:09:49 17° 292° (WNW) 11:12:17 145.990 - 145.960
DUCHIFAT 1 24 Nov 11:08:08 11:12:15 57° 74° (ENE) 11:16:23 145.980
